Ketchikan, AK

5:29 PM AKST on February 20, 2019 (GMT -0900)
Ketchikan International

Weather History for PAKT - January, 2019

Change the Weather History Date:

Thursday, January 3, 2019

  Actual Average Record
Temperature  
Mean Temperature 32 °F -  
Max Temperature 34 °F 37 °F 50 °F (1958)
Min Temperature 30 °F 27 °F 3 °F (1982)
Degree Days  
Heating Degree Days 33    
Moisture  
Dew Point 29 °F    
Average Humidity 89    
Maximum Humidity 100    
Minimum Humidity 73    
Precipitation  
Precipitation 0.00 in - - ()
Sea Level Pressure  
Sea Level Pressure 29.55 in    
Wind  
Wind Speed 6 mph (NW)    
Max Wind Speed 13 mph    
Max Gust Speed -    
Visibility 7 miles    
Events Fog    
Averages and records for this station are not official NWS values.
T = Trace of Precipitation, MM = Missing Value Source: NWS Daily Summary

Daily Weather History Graph

Daily Weather History Graph

Search for Another Location

Airport or City:

Astronomy

Jan. 03, 2019 Rise Set
Actual Time 8:13 AM AKST 3:29 PM AKST
Civil Twilight 7:27 AM AKST 4:15 PM AKST
Nautical Twilight 6:40 AM AKST 5:02 PM AKST
Astronomical Twilight 5:55 AM AKST 5:47 PM AKST
Moon 5:56 AM AKST (1/3) 2:03 PM AKST (1/3)
Length of Visible Light 8h 47m
Length of Day
7h 16m
Waning Crescent, 5% of the Moon is Illuminated
Jan 3
Waning Crescent
Jan 5
New
Jan 13
First Quarter
Jan 20
Full
Jan 27
Last Quarter

Hourly Weather History & Observations

Time (AKST) Temp. Windchill Dew Point Humidity Pressure Visibility Wind Dir Wind Speed Gust Speed Precip Events Conditions
12:12 AM 32.0 °F 25.6 °F 30.9 °F 96% 29.68 in 0.5 mi NNW 6.9 mph - N/A Fog Fog
12:25 AM 32.0 °F 27.5 °F 30.9 °F 96% 29.68 in 1.2 mi WNW 4.6 mph - N/A   Overcast
12:35 AM 30.9 °F 27.5 °F 30.9 °F 100% 29.68 in 3.0 mi WNW 3.5 mph - N/A   Overcast
12:47 AM 32.0 °F 27.5 °F 30.2 °F 93% 29.68 in 1.5 mi North 4.6 mph - N/A   Overcast
12:53 AM 32.0 °F 28.7 °F 32.0 °F 100% 29.69 in 0.5 mi NNE 3.5 mph - N/A Fog Fog
1:40 AM 32.0 °F - 30.9 °F 96% 29.67 in 0.2 mi Calm Calm - N/A Fog Fog
1:53 AM 32.0 °F - 30.9 °F 96% 29.68 in 0.2 mi Calm Calm - N/A Fog Fog
2:41 AM 32.0 °F - 30.9 °F 96% 29.66 in 0.2 mi Calm Calm - N/A Fog Fog
2:53 AM 32.0 °F - 30.9 °F 96% 29.66 in 0.2 mi Calm Calm - N/A Fog Fog
3:06 AM 32.0 °F 27.5 °F 30.9 °F 96% 29.65 in 0.5 mi NW 4.6 mph - N/A Fog Fog
3:19 AM 32.0 °F 28.7 °F 30.9 °F 96% 29.64 in 1.0 mi WNW 3.5 mph - N/A   Overcast
3:42 AM 30.9 °F 24.3 °F 30.9 °F 100% 29.63 in 3.0 mi NW 6.9 mph - N/A   Overcast
3:53 AM 30.9 °F 25.2 °F 30.9 °F 100% 29.63 in 1.8 mi WNW 5.8 mph - N/A   Overcast
4:05 AM 30.9 °F 24.3 °F 30.9 °F 100% 29.61 in 3.0 mi NW 6.9 mph - N/A   Overcast
4:53 AM 32.0 °F 27.5 °F 30.9 °F 96% 29.60 in 10.0 mi NNW 4.6 mph - N/A   Overcast
5:45 AM 30.9 °F 24.3 °F 30.0 °F 96% 29.57 in 10.0 mi NW 6.9 mph - N/A   Scattered Clouds
5:53 AM 32.0 °F 24.8 °F 30.0 °F 92% 29.58 in 10.0 mi NW 8.1 mph - N/A   Partly Cloudy
6:07 AM 30.9 °F 21.2 °F 30.0 °F 96% 29.56 in 10.0 mi NNW 12.7 mph - N/A   Partly Cloudy
6:53 AM 30.2 °F 20.8 °F 30.2 °F 100% 29.55 in 10.0 mi NNW 11.5 mph - N/A   Clear
7:53 AM 30.2 °F 20.2 °F 30.2 °F 100% 29.51 in 10.0 mi NW 12.7 mph - N/A   Partly Cloudy
8:53 AM 30.2 °F 20.2 °F 28.4 °F 93% 29.49 in 10.0 mi NW 12.7 mph - N/A   Clear
9:53 AM 32.0 °F 24.2 °F 28.4 °F 87% 29.49 in 10.0 mi NW 9.2 mph - N/A   Clear
10:53 AM 32.0 °F 25.6 °F 28.4 °F 87% 29.49 in 10.0 mi NW 6.9 mph - N/A   Clear
11:53 AM 32.0 °F 23.0 °F 28.4 °F 87% 29.47 in 10.0 mi NW 11.5 mph - N/A   Clear
12:53 PM 32.0 °F 23.0 °F 26.6 °F 80% 29.45 in 10.0 mi WNW 11.5 mph - N/A   Clear
1:53 PM 33.8 °F 25.8 °F 26.6 °F 75% 29.44 in 10.0 mi NW 10.4 mph - N/A   Clear
2:53 PM 33.8 °F 25.3 °F 26.6 °F 75% 29.44 in 10.0 mi WNW 11.5 mph - N/A   Clear
3:53 PM 34.0 °F 26.0 °F 27.0 °F 75% 29.43 in 10.0 mi NW 10.4 mph - N/A   Clear
4:53 PM 33.1 °F 25.5 °F 27.0 °F 78% 29.43 in 10.0 mi NW 9.2 mph - N/A   Clear
5:53 PM 33.1 °F 25.5 °F 27.0 °F 78% 29.42 in 10.0 mi NW 9.2 mph - N/A   Clear
6:53 PM 33.1 °F 23.9 °F 26.1 °F 75% 29.42 in 10.0 mi NW 12.7 mph - N/A   Clear
7:53 PM 32.0 °F 23.0 °F 24.1 °F 73% 29.41 in 10.0 mi NW 11.5 mph - N/A   Clear
8:53 PM 32.0 °F 23.0 °F 25.0 °F 75% 29.42 in 10.0 mi NW 11.5 mph - N/A   Clear
9:53 PM 32.0 °F 23.6 °F 26.1 °F 79% 29.42 in 10.0 mi NNW 10.4 mph - N/A   Clear
10:53 PM 30.9 °F 21.2 °F 25.0 °F 79% 29.41 in 10.0 mi NNW 12.7 mph - N/A   Clear
11:53 PM 30.9 °F 22.8 °F 25.0 °F 79% 29.43 in 10.0 mi NW 9.2 mph - N/A   Clear